Sanford, ME

1:23 PM EDT on June 22, 2017 (GMT -0400)
Sanford Regional

Weather History for KSFM - February, 2012

Change the Weather History Date:

Thursday, February 2, 2012

  Actual Average Record
Temperature  
Mean Temperature 34 °F -  
Max Temperature 39 °F 31 °F 48 °F (2009)
Min Temperature 28 °F 11 °F -5 °F (2005)
Degree Days  
Heating Degree Days 32    
Moisture  
Dew Point 26 °F    
Average Humidity 81    
Maximum Humidity 100    
Minimum Humidity 69    
Precipitation  
Precipitation 0.00 in - - ()
Sea Level Pressure  
Sea Level Pressure 30.02 in    
Wind  
Wind Speed 5 mph (NE)    
Max Wind Speed 12 mph    
Max Gust Speed -    
Visibility 10 miles    
Events      
Averages and records for this station are not official NWS values.
T = Trace of Precipitation, MM = Missing Value Source: NWS Daily Summary

Daily Weather History Graph

Daily Weather History Graph

Search for Another Location

Airport or City:

Trip Planner

Search our weather history database for the weather conditions in past years. The results will help you decide how hot, cold, wet, or windy it might be!

Date:

Astronomy

Feb. 02, 2012 Rise Set
Actual Time 6:58 AM EST 4:55 PM EST
Civil Twilight 6:27 AM EST 5:25 PM EST
Nautical Twilight 5:53 AM EST 5:59 PM EST
Astronomical Twilight 5:20 AM EST 6:33 PM EST
Moon 12:00 PM EST (2/2) 2:40 AM EST (2/2)
Length of Visible Light 10h 57m
Length of Day
9h 57m
Waxing Gibbous, 73% of the Moon is Illuminated
Feb 2
Waxing Gibbous
Feb 7
Full
Feb 14
Last Quarter
Feb 21
New
Feb 29
First Quarter

Hourly Weather History & Observations

Time (EST) Temp. Windchill Dew Point Humidity Pressure Visibility Wind Dir Wind Speed Gust Speed Precip Events Conditions
12:15 AM 30.2 °F 24.3 °F 28.4 °F 93% 29.90 in 6.0 mi WSW 5.8 mph - N/A   Scattered Clouds
12:35 AM 30.2 °F 25.4 °F 28.4 °F 93% 29.90 in 10.0 mi SW 4.6 mph - N/A   Mostly Cloudy
12:55 AM 35.6 °F 31.7 °F 32.0 °F 87% 29.91 in 10.0 mi SSW 4.6 mph - N/A   Overcast
1:15 AM 35.6 °F 31.7 °F 33.8 °F 93% 29.91 in 10.0 mi South 4.6 mph - N/A   Overcast
1:35 AM 37.4 °F 33.8 °F 33.8 °F 87% 29.92 in 10.0 mi SW 4.6 mph - N/A   Overcast
1:55 AM 37.4 °F 30.8 °F 32.0 °F 81% 29.92 in 10.0 mi SW 9.2 mph - N/A   Overcast
2:15 AM 39.2 °F 35.9 °F 32.0 °F 75% 29.93 in 10.0 mi SSW 4.6 mph - N/A   Overcast
2:55 AM 37.4 °F 33.8 °F 30.2 °F 75% 29.93 in 10.0 mi SW 4.6 mph - N/A   Overcast
3:15 AM 37.4 °F 33.8 °F 32.0 °F 81% 29.93 in 10.0 mi SW 4.6 mph - N/A   Overcast
3:35 AM 37.4 °F 34.9 °F 30.2 °F 75% 29.94 in 10.0 mi WSW 3.5 mph - N/A   Overcast
3:55 AM 37.4 °F 33.8 °F 33.8 °F 87% 29.94 in 10.0 mi WSW 4.6 mph - N/A   Overcast
4:15 AM 37.4 °F 32.1 °F 30.2 °F 75% 29.95 in 10.0 mi WSW 6.9 mph - N/A   Overcast
4:35 AM 35.6 °F - 30.2 °F 81% 29.96 in 10.0 mi Calm Calm - N/A   Scattered Clouds
4:55 AM 35.6 °F 30.7 °F 30.2 °F 81% 29.95 in 10.0 mi West 5.8 mph - N/A   Clear
5:15 AM 33.8 °F 29.6 °F 28.4 °F 81% 29.96 in 10.0 mi West 4.6 mph - N/A   Clear
5:55 AM 35.6 °F 32.8 °F 30.2 °F 81% 29.97 in 10.0 mi WNW 3.5 mph - N/A   Overcast
6:15 AM 32.0 °F - 28.4 °F 87% 29.98 in 10.0 mi Calm Calm - N/A   Overcast
6:35 AM 32.0 °F - 30.2 °F 93% 29.98 in 10.0 mi Calm Calm - N/A   Overcast
6:55 AM 33.8 °F 27.0 °F 30.2 °F 87% 30.00 in 10.0 mi ENE 8.1 mph - N/A   Overcast
7:15 AM 33.8 °F 27.7 °F 33.8 °F 100% 30.01 in 10.0 mi ENE 6.9 mph - N/A   Overcast
7:35 AM 33.8 °F 25.3 °F 28.4 °F 81% 30.03 in 9.0 mi NE 11.5 mph - N/A   Overcast
7:55 AM 32.0 °F 25.6 °F 28.4 °F 87% 30.04 in 10.0 mi NE 6.9 mph - N/A   Overcast
8:15 AM 30.2 °F 25.4 °F 26.6 °F 86% 30.05 in 10.0 mi NE 4.6 mph - N/A   Overcast
8:35 AM 30.2 °F 24.3 °F 28.4 °F 93% 30.06 in 10.0 mi ENE 5.8 mph - N/A   Overcast
9:15 AM 30.2 °F 25.4 °F 24.8 °F 80% 30.05 in 10.0 mi ENE 4.6 mph - N/A   Overcast
9:35 AM 30.2 °F 23.4 °F 24.8 °F 80% 30.06 in 10.0 mi ENE 6.9 mph - N/A   Overcast
9:55 AM 30.2 °F 24.3 °F 26.6 °F 86% 30.06 in 10.0 mi ENE 5.8 mph - N/A   Overcast
10:15 AM 30.2 °F 21.9 °F 24.8 °F 80% 30.06 in 10.0 mi NNE 9.2 mph - N/A   Overcast
10:35 AM 30.2 °F 23.4 °F 24.8 °F 80% 30.05 in 10.0 mi NNE 6.9 mph - N/A   Overcast
10:55 AM 30.2 °F 22.6 °F 24.8 °F 80% 30.06 in 10.0 mi ENE 8.1 mph - N/A   Overcast
11:15 AM 30.2 °F 24.3 °F 26.6 °F 86% 30.06 in 10.0 mi ENE 5.8 mph - N/A   Overcast
11:35 AM 30.2 °F 24.3 °F 23.0 °F 75% 30.05 in 10.0 mi ENE 5.8 mph - N/A   Overcast
11:55 AM 30.2 °F 23.4 °F 23.0 °F 75% 30.05 in 10.0 mi ENE 6.9 mph - N/A   Overcast
12:15 PM 30.2 °F 25.4 °F 24.8 °F 80% 30.05 in 10.0 mi NE 4.6 mph - N/A   Overcast
12:35 PM 30.2 °F 24.3 °F 24.8 °F 80% 30.05 in 10.0 mi ENE 5.8 mph - N/A   Overcast
12:55 PM 30.2 °F 22.6 °F 21.2 °F 69% 30.04 in 10.0 mi ENE 8.1 mph - N/A   Overcast
1:15 PM 28.4 °F 20.4 °F 21.2 °F 74% 30.04 in 10.0 mi NE 8.1 mph - N/A   Overcast
1:35 PM 28.4 °F 23.3 °F 24.8 °F 86% 30.05 in 10.0 mi East 4.6 mph - N/A   Overcast
1:55 PM 28.4 °F 24.6 °F 24.8 °F 86% 30.05 in 10.0 mi ENE 3.5 mph - N/A   Overcast
2:15 PM 30.2 °F 25.4 °F 21.2 °F 69% 30.05 in 10.0 mi East 4.6 mph - N/A   Overcast
2:35 PM 30.2 °F 23.4 °F 21.2 °F 69% 30.05 in 10.0 mi NE 6.9 mph - N/A   Overcast
2:55 PM 30.2 °F 26.7 °F 24.8 °F 80% 30.05 in 10.0 mi ENE 3.5 mph - N/A   Overcast
3:15 PM 30.2 °F 25.4 °F 24.8 °F 80% 30.05 in 10.0 mi East 4.6 mph - N/A   Overcast
3:35 PM 30.2 °F 26.7 °F 21.2 °F 69% 30.06 in 10.0 mi NE 3.5 mph - N/A   Overcast
3:55 PM 28.4 °F 22.2 °F 21.2 °F 74% 30.06 in 10.0 mi East 5.8 mph - N/A   Overcast
4:15 PM 28.4 °F 24.6 °F 24.8 °F 86% 30.06 in 10.0 mi ENE 3.5 mph - N/A   Overcast
4:35 PM 28.4 °F 22.2 °F 23.0 °F 80% 30.06 in 10.0 mi NE 5.8 mph - N/A   Overcast
4:55 PM 28.4 °F 22.2 °F 21.2 °F 74% 30.07 in 10.0 mi NE 5.8 mph - N/A   Overcast
5:15 PM 28.4 °F 22.2 °F 21.2 °F 74% 30.08 in 10.0 mi NE 5.8 mph - N/A   Overcast
5:35 PM 28.4 °F 20.4 °F 24.8 °F 86% 30.09 in 10.0 mi NE 8.1 mph - N/A   Overcast
5:55 PM 28.4 °F 20.4 °F 21.2 °F 74% 30.10 in 10.0 mi NE 8.1 mph - N/A   Overcast
6:15 PM 28.4 °F 20.4 °F 19.4 °F 69% 30.11 in 10.0 mi NE 8.1 mph - N/A   Overcast
6:35 PM 28.4 °F 22.2 °F 21.2 °F 74% 30.11 in 10.0 mi NNE 5.8 mph - N/A   Overcast
6:55 PM 28.4 °F 21.2 °F 23.0 °F 80% 30.11 in 10.0 mi NE 6.9 mph - N/A   Overcast
7:15 PM 28.4 °F 21.2 °F 19.4 °F 69% 30.11 in 10.0 mi NNE 6.9 mph - N/A   Overcast
7:35 PM 28.4 °F 19.7 °F 17.6 °F 64% 30.12 in 10.0 mi NNE 9.2 mph - N/A   Overcast
7:55 PM 28.4 °F 21.2 °F 21.2 °F 74% 30.13 in 10.0 mi North 6.9 mph - N/A   Overcast
8:15 PM 28.4 °F 20.4 °F 19.4 °F 69% 30.13 in 10.0 mi North 8.1 mph - N/A   Overcast
8:35 PM 28.4 °F 19.7 °F 17.6 °F 64% 30.13 in 10.0 mi NNE 9.2 mph - N/A   Overcast
8:55 PM 28.4 °F 19.7 °F 21.2 °F 74% 30.14 in 10.0 mi NNE 9.2 mph - N/A   Overcast
9:15 PM 28.4 °F 18.0 °F 17.6 °F 64% 30.15 in 10.0 mi NNE 12.7 mph - N/A   Overcast
9:35 PM 26.6 °F 17.5 °F 15.8 °F 64% 30.16 in 10.0 mi NNE 9.2 mph - N/A   Overcast
9:55 PM 26.6 °F 16.8 °F 19.4 °F 74% 30.16 in 10.0 mi NE 10.4 mph - N/A   Overcast
10:15 PM 26.6 °F 16.8 °F 17.6 °F 69% 30.16 in 10.0 mi NE 10.4 mph - N/A   Overcast
10:35 PM 26.6 °F 16.8 °F 15.8 °F 64% 30.17 in 10.0 mi NE 10.4 mph - N/A   Overcast
10:55 PM 26.6 °F 16.8 °F 19.4 °F 74% 30.17 in 10.0 mi NNE 10.4 mph - N/A   Overcast
11:15 PM 26.6 °F 18.2 °F 14.0 °F 59% 30.18 in 10.0 mi North 8.1 mph - N/A   Overcast
11:35 PM 26.6 °F 16.8 °F 17.6 °F 69% 30.18 in 10.0 mi NNE 10.4 mph - N/A   Overcast